Location: Buchloe
(48.0161°N, 10.7316°E)
Time: 04:38:19
(UTC+02:00)

ISS - Pass Details

Date: 09 July 2025
Orbit: 413 x 417 km, 51.6° (Epoch: 12 July)

Event Time Altitude Azimuth Distance (km) Brightness Sun altitude
Rises 23:34:39 0° 257° (WSW) 2,346 0.2 -15.7°
Reaches altitude 10° 23:36:45 10° 261° (W) 1,486 -0.8 -15.9°
Maximum altitude 23:40:03 62° 343° (NNW) 470 -3.3 -16.1°
Drops below altitude 10° 23:43:23 10° 66° (ENE) 1,493 -1.0 -16.3°
Sets 23:45:30 0° 69° (ENE) 2,358 0.0 -16.5°
